Manhattan, KS

9:59 AM CST on February 21, 2018 (GMT -0600)
Manhattan Regional

Weather History for KMHK - July, 2012

Change the Weather History Date:

Tuesday, July 31, 2012

  Actual Average Record
Temperature  
Mean Temperature 86 °F 79 °F  
Max Temperature 100 °F 91 °F 105 °F (2011)
Min Temperature 71 °F 67 °F 55 °F (2014)
Degree Days  
Heating Degree Days 0 0  
Month to date heating degree days 0 0  
Since 1 June heating degree days 13 12  
Since 1 July heating degree days 0 1  
Cooling Degree Days 21 14  
Month to date cooling degree days 626 436  
Year to date cooling degree days 1313 806  
Since 1 June cooling degree days 1033 706  
Growing Degree Days 35 (Base 50)    
Moisture  
Dew Point 66 °F    
Average Humidity 60    
Maximum Humidity 93    
Minimum Humidity 26    
Precipitation  
Precipitation 0.03 in 0.11 in 2.15 in (2007)
Month to date precipitation 0.86 3.97  
Year to date precipitation 12.63 20.26  
Sea Level Pressure  
Sea Level Pressure 29.90 in    
Wind  
Wind Speed 4 mph (ENE)    
Max Wind Speed 14 mph    
Max Gust Speed 18 mph    
Visibility 10 miles    
Events Rain , Thunderstorm    
T = Trace of Precipitation, MM = Missing Value Source: NWS Daily Summary

Daily Weather History Graph

Daily Weather History Graph

Search for Another Location

Airport or City:

Trip Planner

Search our weather history database for the weather conditions in past years. The results will help you decide how hot, cold, wet, or windy it might be!

Date:

Astronomy

Jul. 31, 2012 Rise Set
Actual Time 6:26 AM CDT 8:38 PM CDT
Civil Twilight 5:56 AM CDT 9:08 PM CDT
Nautical Twilight 5:20 AM CDT 9:45 PM CDT
Astronomical Twilight 4:39 AM CDT 10:25 PM CDT
Moon 7:28 PM CDT (7/31) 4:49 AM CDT (7/31)
Length of Visible Light 15h 11m
Length of Day
14h 12m
Waxing Gibbous, 97% of the Moon is Illuminated
Jul 31
Waxing Gibbous
Aug 1
Full
Aug 9
Last Quarter
Aug 17
New
Aug 24
First Quarter

Hourly Weather History & Observations

Time (CDT) Temp. Heat Index Dew Point Humidity Pressure Visibility Wind Dir Wind Speed Gust Speed Precip Events Conditions
12:52 AM 80.1 °F 82.1 °F 66.0 °F 62% 29.92 in 10.0 mi Calm Calm - N/A   Clear
1:52 AM 75.9 °F - 69.1 °F 79% 29.92 in 9.0 mi Calm Calm - 0.00 in Rain Light Rain
2:09 AM 75.2 °F - 69.8 °F 83% 29.95 in 10.0 mi Calm Calm - N/A Thunderstorm Overcast
2:24 AM 73.4 °F - 71.6 °F 94% 29.94 in 10.0 mi North 3.5 mph - 0.00 in   Overcast
2:52 AM 75.2 °F - 69.8 °F 83% 29.93 in 10.0 mi North 3.5 mph - N/A   Mostly Cloudy
3:52 AM 77.0 °F - 69.1 °F 76% 29.90 in 10.0 mi Calm Calm - N/A   Mostly Cloudy
4:52 AM 75.0 °F - 70.0 °F 84% 29.91 in 7.0 mi East 3.5 mph - 0.03 in Rain Light Rain
5:52 AM 73.0 °F - 70.0 °F 90% 29.90 in 10.0 mi Calm Calm - 0.00 in   Partly Cloudy
6:52 AM 72.0 °F - 69.1 °F 91% 29.91 in 10.0 mi Calm Calm - N/A   Clear
7:52 AM 75.9 °F - 71.1 °F 85% 29.91 in 10.0 mi NNE 4.6 mph - N/A   Clear
8:52 AM 80.1 °F 82.9 °F 69.1 °F 69% 29.93 in 10.0 mi ENE 5.8 mph - N/A   Clear
9:52 AM 84.0 °F 87.0 °F 68.0 °F 58% 29.94 in 10.0 mi ENE 8.1 mph - N/A   Clear
10:52 AM 88.0 °F 91.4 °F 68.0 °F 51% 29.93 in 10.0 mi East 8.1 mph - N/A   Clear
11:52 AM 89.1 °F 92.1 °F 66.9 °F 48% 29.94 in 10.0 mi NNE 6.9 mph - N/A   Clear
12:52 PM 93.9 °F 96.1 °F 64.9 °F 38% 29.92 in 10.0 mi NE 5.8 mph - N/A   Clear
1:52 PM 95.0 °F 95.6 °F 62.1 °F 33% 29.90 in 10.0 mi NE 10.4 mph - N/A   Clear
2:52 PM 98.1 °F 97.2 °F 57.9 °F 26% 29.88 in 10.0 mi East 10.4 mph - N/A   Clear
3:52 PM 98.1 °F 97.7 °F 59.0 °F 27% 29.87 in 10.0 mi ENE 9.2 mph - N/A   Clear
4:52 PM 98.1 °F 97.7 °F 59.0 °F 27% 29.87 in 10.0 mi SE 5.8 mph - N/A   Clear
5:52 PM 98.6 °F 98.5 °F 59.0 °F 27% 29.89 in 10.0 mi SE 3.5 mph - N/A   Clear
6:52 PM 97.0 °F 97.4 °F 61.0 °F 30% 29.85 in 10.0 mi ENE 5.8 mph - N/A   Clear
7:52 PM 96.1 °F 96.9 °F 62.1 °F 32% 29.85 in 10.0 mi ENE 4.6 mph - N/A   Clear
8:52 PM 87.8 °F 89.4 °F 64.4 °F 46% 29.89 in 10.0 mi ENE 3.5 mph - N/A   Clear
9:52 PM 84.9 °F 86.6 °F 64.9 °F 51% 29.88 in 10.0 mi Calm Calm - N/A   Clear
10:52 PM 81.0 °F 83.0 °F 66.0 °F 60% 29.88 in 10.0 mi Calm Calm - N/A   Clear
11:52 PM 77.0 °F - 66.9 °F 71% 29.88 in 10.0 mi Calm Calm - N/A   Clear